STARLINK-36703

Last updated on Thu Mar 05 2026 00:02:08 GMT+0000 (Coordinated Universal Time)

1 67650U 26022C 26063.51518071 .00297080 00000+0 19153-2 0 9997 2 67650 97.2826 97.2251 0001345 23.1980 336.9345 15.75296058 4737
UTC large
Height (km)
Speed (km/s)
/
Latitude / Longitude
Inclination (degrees)
Orbital Period (minutes)
Azimuth
Elevation
Range (km)
Doppler Factor

Next 0 passes for location: London (51.5072 / 0.1276)

Sorry there are no passes over London.